Regional Weather Roundup
Issued by NWS

Home | Current Version | Previous Version | Graphics & Text | Print | Product List | Glossary Off
Versions: 1 2 3 4 5 6 7 8 9 10 11 12 13 14 15 16 17 18 19 20 21 22 23 24 25 26 27 28 29 30 31 32 33 34 35 36 37 38 39 40 41 42 43 44 45 46 47 48 49 50

000
ASUS43 KMKX 151900
RWRWI

WISCONSIN REGIONAL WEATHER ROUNDUP
NATIONAL WEATHER SERVICE MILWAUKEE/SULLIVAN WI
200 PM CDT TUE APR 15 2014

NOTE: "FAIR" INDICATES FEW OR NO CLOUDS BELOW 12,000 FEET WITH NO
SIGNIFICANT WEATHER AND/OR OBSTRUCTIONS TO VISIBILITY.

WIZ001-002-006>008-014>016-023>028-152000-
NORTHWEST WISCONSIN

CITY           SKY/WX    TMP DP  RH WIND       PRES   REMARKS
SUPERIOR ARPT  SUNNY     29   3  32 SW5       30.10F WCI  24
ASHLAND        PTSUNNY   27   6  41 NW8       30.09F WCI  19
HAYWARD        SUNNY     30  -1  26 VRB5      30.06F WCI  25
SIREN          SUNNY     30   2  30 NW5       30.09F WCI  25
RICE LAKE      NOT AVBL
LADYSMITH      MOSUNNY   29   8  41 W9        30.09F WCI  21
EAU CLAIRE     SUNNY     33   7  33 VRB5G17   30.09F WCI  29
MENOMONIE      PTCLDY    32   7  35 W9        30.11F WCI  24
NEW RICHMOND   SUNNY     30   3  31 CALM      30.10F
OSCEOLA        SUNNY     31   4  31 CALM      30.12F
$$

WIZ003>005-009-010-017-018-152000-
NORTH CENTRAL WISCONSIN

CITY           SKY/WX    TMP DP  RH WIND       PRES   REMARKS
WOODRUFF       CLOUDY    29  11  47 NW6G17    30.03R WCI  23
RHINELANDER    PTSUNNY   24   8  50 W14G25    30.03R WCI  12
EAGLE RIVER    FLURRIES  24  11  57 NW15G24   30.02R WCI  12
LAND O LAKES   LGT SNOW  23  13  66 NW13G22   30.03R WCI  11
PHILLIPS       MOSUNNY   27   4  36 W7        30.04S WCI  20
TOMAHAWK       CLOUDY    26   7  44 NW10G20   30.04S WCI  16
MEDFORD        PTSUNNY   26  10  50 W7        30.06S WCI  18
MERRILL        CLOUDY    28   7  41 CALM      30.05S
$$

WIZ029-030-035-036-043>047-152000-
CENTRAL WISCONSIN

CITY           SKY/WX    TMP DP  RH WIND       PRES   REMARKS
WAUSAU         PTSUNNY   28  13  53 W8        30.05S WCI  20
MOSINEE        PTSUNNY   27  12  54 W14G22    30.08S WCI  15
MARSHFIELD     CLOUDY    28  13  53 NW16      30.08S WCI  16
STEVENS POINT  CLOUDY    27   8  44 W9G18     30.09S WCI  18
WAUPACA        PTSUNNY   30  12  47 W13       30.10S WCI  20
WAUTOMA        NOT AVBL
WISC RAPIDS    CLOUDY    29  11  47 NW13      30.11S WCI  19
CAMP DOUGLAS   NOT AVBL
$$

WIZ011>013-019>022-031-037>040-048>050-152000-
NORTHEAST WISCONSIN

CITY           SKY/WX    TMP DP  RH WIND       PRES   REMARKS
ANTIGO         CLOUDY    27  12  55 W13       30.03S WCI  16
STURGEON BAY   CLOUDY    27  12  54 W13       30.09R WCI  16
GREEN BAY      FLURRIES  29  20  69 W12G21    30.10S WCI  19
MANITOWOC      NOT AVBL
APPLETON       PTSUNNY   30  16  55 W13       30.10S WCI  20
CLINTONVILLE   PTSUNNY   30  16  55 W14G21    30.09S WCI  20
OSHKOSH        CLOUDY    30  14  51 W8        30.10S WCI  22
$$

WIZ032>034-041-042-053>061-152000-
SOUTHWEST WISCONSIN

CITY           SKY/WX    TMP DP  RH WIND       PRES   REMARKS
LA CROSSE      PTSUNNY   36  14  40 W9        30.13F WCI  29
SPARTA         PTSUNNY   32  13  44 W10G17    30.13F WCI  24
VIROQUA        FAIR      31  15  50 NW7       30.10F WCI  24
BOSCOBEL       LGT RAIN  37  12  35 W12       30.14F WCI  29
PRAIRIE DU CHI MOSUNNY   35  13  39 W6        30.15S WCI  30
PLATTEVILLE    PTSUNNY   33  16  51 NW7       30.14S WCI  26
$$

WIZ056-057-062-063-064-067-068-152000-
SOUTH CENTRAL WISCONSIN

CITY           SKY/WX    TMP DP  RH WIND       PRES   REMARKS
BARABOO/DELLS  CLOUDY    29  17  59 W6        30.12S WCI  23
LONE ROCK      NOT AVBL
WATERTOWN      CLOUDY    32  14  47 W10       30.11S WCI  23
MADISON        PTSUNNY   34  14  43 W10G17    30.13S WCI  26
MIDDLETON      CLOUDY    34  14  43 W9        30.13R WCI  26
MONROE         PTSUNNY   33  13  43 NW9G16    30.12R WCI  26
JANESVILLE     CLOUDY    36  12  38 W12       30.13R WCI  27
$$

WIZ051-052-058>065-066-070>072-152000-
SOUTHEAST WISCONSIN

CITY           SKY/WX    TMP DP  RH WIND       PRES   REMARKS
MILWAUKEE      PTSUNNY   33  10  38 NW8       30.14R WCI  26
WAUKESHA       PTSUNNY  N/A N/A N/A NW12      30.12S
MILWAUKEE/TIMM CLOUDY    32   9  37 NW9G18    30.13S WCI  24
RACINE         CLOUDY    30  16  56 E5        30.15R WCI  25
BURLINGTON     MOSUNNY   31  14  47 NW15      30.12S WCI  21
KENOSHA        PTSUNNY   32  15  49 NW10      30.13S WCI  24
FOND DU LAC    CLOUDY    30  14  51 NW8       30.11S WCI  22
SHEBOYGAN      PTSUNNY   33  17  51 W16       30.12R WCI  23
WEST BEND      CLOUDY    30   7  37 W10       30.11R WCI  21
JUNEAU         CLOUDY    31  11  42 W7        30.12S WCI  24
$$

LSZ147-162-152000-
LAKE SUPERIOR

STATION/POSITION TIME  TEMP    WIND        PRES    WAVE
                       AIR SEA DIR/SP/G            HT/PER
                 (UTC) (F)     (DEG/KT/KT) (MB)    (FT/S)
DEVILS ISLAND    1800   25     230/ 10/ 11 1020.9F
PORT WING        1800   24     280/  8/ 12 1020.0
SAXON HARBOR     1800           10/  6/  8 1020.0
$$

LMZ867-665-643>646-152000-
LAKE MICHIGAN

STATION/POSITION TIME  TEMP    WIND        PRES    WAVE
                       AIR SEA DIR/SP/G            HT/PER
                 (UTC) (F)     (DEG/KT/KT) (MB)    (FT/S)
NORTHPORT PIER   1800   25     340/  8/ 11 1018.6S
SISTER BAY       1723             CALM       N/A
KEWAUNEE LAKESHO 1800   29     260/ 11/ 15 1019.7S
SHEBOYGAN LAKESH 1800   30     290/  8/ 10 1020.7F
PORT WASHINGTON  1840   33     300/  5/ 13 1020.7S
MILWAUKEE LAKESH 1800   30     290/  4/  8   N/A
KENOSHA   LAKESH 1800   30     320/ 12/ 15   N/A
$$

TC  - TEMPERATURE IN CELSIUS
VSB - VISIBILITY IN STATUTE MILES
WCI - WIND CHILL INDEX
HX  - HEAT INDEX




USA.gov is the U.S. government's official web portal to all federal, state and local government web resources and services.